This is the latest recevied weather packets stored in our database for station/object VK6DUG. If no packets are shown the sender has not sent any weather packets the latest 10 day(s).
| Time | Temp. | Humidity | Pressure | Rain* | Wind** | Luminosity | Snow |
|---|---|---|---|---|---|---|---|
| 1777402829 | 12.22° C | 96% | 1017.8 hPa | 0 mm | - | 0 W/m² | - |
| 1777402225 | 12.78° C | 96% | 1017.7 hPa | 0 mm | - | 0 W/m² | - |
| 1777401621 | 13.33° C | 96% | 1017.9 hPa | 0 mm | - | 0 W/m² | - |
| 1777401019 | 13.33° C | 96% | 1018 hPa | 0 mm | - | 0 W/m² | - |
| 1777400436 | 13.89° C | 96% | 1018.1 hPa | 0 mm | - | 0 W/m² | - |
| 1777399832 | 13.33° C | 96% | 1018.1 hPa | 0 mm | - | 0 W/m² | - |
| 1777399229 | 12.78° C | 96% | 1018.1 hPa | 0 mm | - | 0 W/m² | - |
| 1777398625 | 13.33° C | 96% | 1018.2 hPa | 0 mm | - | 0 W/m² | - |
| 1777398023 | 13.33° C | 96% | 1018.2 hPa | 0 mm | - | 0 W/m² | - |
| 1777397419 | 13.89° C | 96% | 1018.3 hPa | 0 mm | - | 0 W/m² | - |
| 1777396835 | 13.33° C | 96% | 1018.4 hPa | 0 mm | - | 0 W/m² | - |
| 1777396233 | 13.89° C | 96% | 1018.4 hPa | 0 mm | - | 0 W/m² | - |
| 1777395630 | 13.89° C | 96% | 1018.3 hPa | 0 mm | - | 0 W/m² | - |
| 1777395026 | 14.44° C | 96% | 1018.3 hPa | 0 mm | - | 0 W/m² | - |
| 1777394423 | 14.44° C | 96% | 1018.3 hPa | 0 mm | - | 0 W/m² | - |
| 1777393820 | 14.44° C | 96% | 1018.3 hPa | 0 mm | - | 0 W/m² | - |
| 1777393217 | 14.44° C | 95% | 1018.5 hPa | 0 mm | - | 0 W/m² | - |
| 1777392635 | 14.44° C | 95% | 1018.6 hPa | 0 mm | - | 0 W/m² | - |
| 1777392031 | 15° C | 95% | 1018.8 hPa | 0 mm | - | 0 W/m² | - |
| 1777391428 | 15° C | 95% | 1018.9 hPa | 0 mm | - | 0 W/m² | - |
| 1777390825 | 15° C | 95% | 1018.9 hPa | 0 mm | - | 0 W/m² | - |
| 1777390223 | 15° C | 95% | 1019 hPa | 0 mm | - | 0 W/m² | - |
| 1777389621 | 15° C | 95% | 1019.2 hPa | 0 mm | - | 0 W/m² | - |
| 1777389018 | 15° C | 95% | 1019.2 hPa | 0 mm | - | 0 W/m² | - |
| 1777388435 | 14.44° C | 94% | 1019.1 hPa | 0 mm | - | 0 W/m² | - |
* Rain latest hour (hover to see other rain measurements)
** Current wind speed in m/s (hover to see current wind gust speed)